TimeMST,TemperatureF,Dew PointF,Humidity,Sea Level PressureIn,VisibilityMPH,Wind Direction,Wind SpeedMPH,Gust SpeedMPH,PrecipitationIn,Events,Conditions,WindDirDegrees,DateUTC
1:34 AM,64,56,69,29.88,5,SE,4.5,,,,Mist,130,2012-11-20 08:34:00
4:34 AM,61,53,69,29.86,6,SE,4.5,,,,Clear,130,2012-11-20 11:34:00
6:04 AM,53.6,50.0,88,30.13,10.0,Calm,Calm,-,N/A,,Scattered Clouds,0,2012-11-20 13:04:00
6:51 AM,53.6,50.0,88,30.13,12.0,Calm,Calm,-,N/A,,Mostly Cloudy,0,2012-11-20 13:51:00
7:40 AM,66,47,40,29.88,12,SE,6.7,,,,Clear,130,2012-11-20 14:40:00
7:52 AM,64.4,55.4,73,30.01,12.0,Calm,Calm,-,N/A,,Mostly Cloudy,0,2012-11-20 14:52:00
8:49 AM,75.2,55.4,50,30.15,12.0,SSW,3.5,-,N/A,,Overcast,200,2012-11-20 15:49:00
9:43 AM,84.2,50.0,30,30.15,12.0,SE,6.9,-,N/A,,Overcast,140,2012-11-20 16:43:00
10:40 AM,87,49,18,29.87,12,ENE,4.5,,,,Clear,70,2012-11-20 17:40:00
10:51 AM,86.0,53.6,33,29.97,12.0,SSE,6.9,-,N/A,,Mostly Cloudy,160,2012-11-20 17:51:00
12:42 PM,91.4,50.0,24,30.06,12.0,ESE,6.9,-,N/A,,Mostly Cloudy,120,2012-11-20 19:42:00
1:34 PM,90,67,38,29.79,12,South,4.5,,,,Clear,190,2012-11-20 20:34:00
2:52 PM,82.4,77.0,84,30.03,12.0,North,8.1,-,N/A,,Mostly Cloudy,360,2012-11-20 21:52:00
3:53 PM,80.6,73.4,79,30.04,12.0,North,5.8,-,N/A,,Mostly Cloudy,360,2012-11-20 22:53:00
4:35 PM,77,67,63,29.83,12,SW,6.7,,,,Clear,230,2012-11-20 23:35:00
4:46 PM,77.0,66.2,69,29.98,10.0,Calm,Calm,-,N/A,,Mostly Cloudy,0,2012-11-20 23:46:00
5:49 PM,69.8,68.0,94,30.07,7.0,South,3.5,-,N/A,,Overcast,180,2012-11-21 00:49:00
7:30 PM,72,67,81,29.92,5,NE,4.5,,,,Mostly Cloudy,50,2012-11-21 02:30:00
7:46 PM,68.0,66.2,94,29.97,7.0,WSW,3.5,-,N/A,,Overcast,240,2012-11-21 02:46:00
10:30 PM,71,66,80,29.95,5,ESE,2.2,,,,Mist,120,2012-11-21 05:30:00